Terminal Aerodrome Forecast
Issued by NWS North Platte, NE

Home | Current Version | Previous Version | Text Only | Print | Product List | Glossary On
Versions: 1 2 3 4 5 6 7 8 9 10 11 12 13 14 15
076
FTUS43 KLBF 111604 AAD
TAFLBF
TAF AMD
KLBF 111604Z 1116/1212 18009KT P6SM OVC008
      TEMPO 1116/1118 SCT008 OVC018
     FM111800 24006KT P6SM SCT150 BKN250
     FM112200 29009KT P6SM SCT250
     FM120600 31007KT P6SM OVC015=

USA.gov is the U.S. government's official web portal to all federal, state and local government web resources and services.